East Lindsay
DateTemperatureDew Point
05/08 - 10:30 PM63.1°57.2°
05/08 - 10:15 PM64.1°60.6°
05/08 - 10:00 PM64.6°60.4°
05/08 - 09:45 PM65.3°60.1°
05/08 - 09:30 PM65.4°59.0°
05/08 - 09:15 PM67.3°61.7°
05/08 - 09:00 PM68.0°57.9°
05/08 - 08:45 PM68.1°57.7°
05/08 - 08:30 PM70.2°63.1°
05/08 - 08:15 PM72.2°61.9°
05/08 - 08:00 PM74.5°59.2°
05/08 - 07:45 PM77.2°55.1°
05/08 - 07:30 PM79.4°52.4°
05/08 - 07:15 PM81.3°51.6°
05/08 - 07:00 PM83.4°52.9°
05/08 - 06:45 PM85.1°53.2°
05/08 - 06:30 PM86.6°53.6°
05/08 - 06:15 PM87.6°52.6°
05/08 - 06:00 PM88.3°50.7°
05/08 - 05:45 PM89.1°51.9°
05/08 - 05:30 PM89.9°55.2°
05/08 - 05:15 PM90.1°56.3°
05/08 - 05:00 PM90.2°57.1°
05/08 - 04:45 PM90.7°57.1°
05/08 - 04:30 PM91.3°59.8°
05/08 - 04:15 PM91.6°60.5°
05/08 - 04:00 PM91.8°62.6°
05/08 - 03:45 PM91.7°63.4°
05/08 - 03:30 PM91.2°62.8°
05/08 - 03:15 PM90.8°64.2°
05/08 - 03:00 PM90.4°64.6°
05/08 - 02:45 PM91.0°64.0°
05/08 - 02:30 PM90.7°64.1°
05/08 - 02:15 PM90.4°65.3°
05/08 - 02:00 PM90.1°66.8°
05/08 - 01:45 PM89.0°66.6°
05/08 - 01:30 PM88.6°67.4°
05/08 - 01:15 PM87.9°66.7°
05/08 - 01:00 PM87.8°66.2°
05/08 - 12:45 PM86.6°66.9°
05/08 - 12:30 PM85.5°66.1°
05/08 - 12:15 PM84.8°66.3°
05/08 - 12:00 PM83.4°65.6°
05/08 - 11:45 AM82.6°65.9°
05/08 - 11:30 AM82.3°66.2°
05/08 - 11:15 AM82.1°66.0°
05/08 - 11:00 AM81.5°66.1°
05/08 - 10:45 AM81.0°65.5°
05/08 - 10:30 AM79.6°64.7°
05/08 - 10:15 AM78.3°63.8°
05/08 - 10:00 AM77.5°63.3°
05/08 - 09:45 AM76.7°63.2°
05/08 - 09:30 AM76.5°63.1°
05/08 - 09:15 AM75.6°62.8°
05/08 - 09:00 AM74.5°62.9°
05/08 - 08:45 AM73.5°62.7°
05/08 - 08:30 AM72.4°62.4°
05/08 - 08:15 AM71.4°62.3°
05/08 - 08:00 AM70.6°61.9°
05/08 - 07:45 AM69.0°62.1°
05/08 - 07:30 AM67.4°62.0°
05/08 - 07:15 AM66.0°62.6°
05/08 - 07:00 AM63.6°63.4°
05/08 - 06:45 AM61.4°61.4°
05/08 - 06:30 AM59.6°59.6°
05/08 - 06:15 AM58.7°58.7°
05/08 - 06:00 AM57.5°57.5°
05/08 - 05:45 AM57.2°57.2°
05/08 - 05:30 AM57.6°57.6°
05/08 - 05:15 AM57.7°57.7°
05/08 - 05:00 AM57.8°57.8°
05/08 - 04:45 AM58.2°58.2°
05/08 - 04:30 AM58.6°58.6°
05/08 - 04:15 AM58.5°58.5°
05/08 - 04:00 AM58.8°58.8°
05/08 - 03:45 AM59.1°59.1°
05/08 - 03:30 AM59.3°59.3°
05/08 - 03:15 AM59.7°59.7°
05/08 - 03:00 AM60.1°60.1°
05/08 - 02:45 AM60.7°60.7°
05/08 - 02:30 AM61.0°61.0°
05/08 - 02:15 AM61.3°61.2°
05/08 - 02:00 AM61.6°61.3°
05/08 - 01:45 AM62.0°61.4°
05/08 - 01:30 AM62.4°61.5°
05/08 - 01:15 AM63.0°61.6°
05/08 - 01:00 AM63.3°62.0°
05/08 - 12:45 AM63.3°62.2°
05/08 - 12:30 AM63.1°62.1°
05/08 - 12:15 AM63.3°62.0°
05/08 - 12:00 AM63.4°62.3°
05/07 - 11:45 PM64.0°63.1°
05/07 - 11:30 PM64.2°62.8°
05/07 - 11:15 PM64.9°63.3°
05/07 - 11:00 PM65.5°63.4°
05/07 - 10:45 PM65.9°63.1°
05/07 - 10:30 PM66.3°63.3°
05/07 - 10:15 PM66.4°63.3°
05/07 - 10:00 PM66.4°63.4°
05/07 - 09:45 PM66.4°64.0°
05/07 - 09:30 PM67.2°64.7°
05/07 - 09:15 PM68.1°65.0°
05/07 - 09:00 PM69.3°65.0°
05/07 - 08:45 PM70.2°63.8°
05/07 - 08:30 PM71.3°63.1°
05/07 - 08:15 PM72.7°63.0°
05/07 - 08:00 PM74.3°62.9°
05/07 - 07:45 PM76.4°63.2°
05/07 - 07:30 PM78.7°63.0°
05/07 - 07:15 PM81.0°62.7°
05/07 - 07:00 PM82.7°62.3°
05/07 - 06:45 PM84.1°62.4°
05/07 - 06:30 PM85.4°62.4°
05/07 - 06:15 PM86.4°62.1°
05/07 - 06:00 PM87.3°61.9°
05/07 - 05:45 PM87.8°62.1°
05/07 - 05:30 PM87.7°62.5°
05/07 - 05:15 PM87.9°61.7°
05/07 - 05:00 PM88.3°62.3°
05/07 - 04:45 PM88.3°62.1°
05/07 - 04:30 PM88.4°61.8°
05/07 - 04:15 PM88.5°62.1°
05/07 - 04:00 PM88.2°62.3°
05/07 - 03:45 PM88.4°62.1°
05/07 - 03:30 PM88.7°62.7°
05/07 - 03:15 PM88.0°62.1°
05/07 - 03:00 PM87.8°62.2°
05/07 - 02:45 PM87.0°61.4°
05/07 - 02:30 PM87.2°62.1°
05/07 - 02:15 PM87.4°62.3°
05/07 - 02:00 PM87.1°62.2°
05/07 - 01:45 PM86.2°61.9°
05/07 - 01:30 PM85.0°61.4°
05/07 - 01:15 PM84.7°61.0°
05/07 - 01:00 PM84.6°61.1°
05/07 - 12:45 PM84.4°61.7°
05/07 - 12:30 PM83.8°61.2°
05/07 - 12:15 PM83.2°61.0°
05/07 - 12:00 PM83.4°61.2°
05/07 - 11:45 AM83.0°60.8°
05/07 - 11:30 AM82.6°60.3°
05/07 - 11:15 AM82.6°61.1°
05/07 - 11:00 AM80.9°60.2°
05/07 - 10:45 AM80.8°60.0°
05/07 - 10:30 AM80.2°59.8°
05/07 - 10:15 AM79.5°59.4°
05/07 - 10:00 AM78.9°59.7°
05/07 - 09:45 AM78.5°58.7°
05/07 - 09:30 AM78.0°58.7°
05/07 - 09:15 AM77.0°58.5°
05/07 - 09:00 AM76.1°58.4°
05/07 - 08:45 AM75.4°58.0°
05/07 - 08:30 AM74.5°57.6°
05/07 - 08:15 AM73.4°57.2°
05/07 - 08:00 AM72.1°57.0°
05/07 - 07:45 AM70.4°56.6°
05/07 - 07:30 AM68.5°56.3°
05/07 - 07:15 AM66.7°56.4°
05/07 - 07:00 AM64.0°56.3°
05/07 - 06:45 AM59.2°57.2°
05/07 - 06:30 AM55.1°55.1°
05/07 - 06:15 AM53.8°53.6°
05/07 - 06:00 AM53.6°53.3°
05/07 - 05:45 AM53.7°53.3°
05/07 - 05:30 AM53.6°53.2°
05/07 - 05:15 AM53.8°53.4°
05/07 - 05:00 AM53.8°53.5°
05/07 - 04:45 AM53.1°52.5°
05/07 - 04:30 AM53.5°52.8°
05/07 - 04:15 AM53.9°52.9°
05/07 - 04:00 AM54.2°52.8°
05/07 - 03:45 AM54.9°53.1°
05/07 - 03:30 AM55.6°53.4°
05/07 - 03:15 AM56.4°53.6°
05/07 - 03:00 AM57.1°53.8°
05/07 - 02:45 AM57.5°53.9°
05/07 - 02:30 AM57.6°53.8°
05/07 - 02:15 AM58.6°54.0°
05/07 - 02:00 AM59.4°54.2°
05/07 - 01:45 AM59.1°54.4°
05/07 - 01:30 AM59.6°54.4°
05/07 - 01:15 AM60.0°54.6°
05/07 - 01:00 AM60.2°54.6°
05/07 - 12:45 AM60.2°54.7°
05/07 - 12:30 AM60.2°54.7°
05/07 - 12:15 AM60.5°54.6°
05/07 - 12:00 AM60.7°54.7°
05/06 - 11:45 PM59.8°55.0°
05/06 - 11:30 PM58.7°55.1°
05/06 - 11:15 PM58.7°55.3°